This is the latest recevied weather packets stored in our database for station/object KR8N. If no packets are shown the sender has not sent any weather packets the latest 10 day(s).
| Time | Temp. | Humidity | Pressure | Rain* | Wind** | Luminosity | Snow |
|---|---|---|---|---|---|---|---|
| 1778157754 | 8.33° C | 84% | 1017.2 hPa | 0 mm | - | 124 W/m² | - |
| 1778157453 | 8.33° C | 85% | 1017.3 hPa | 0 mm | - | 104 W/m² | - |
| 1778157150 | 8.33° C | 84% | 1017.2 hPa | 0 mm | - | 92 W/m² | - |
| 1778156845 | 8.33° C | 85% | 1017.1 hPa | 0 mm | - | 87 W/m² | - |
| 1778156541 | 8.33° C | 85% | 1017.2 hPa | 0 mm | - | 91 W/m² | - |
| 1778156237 | 8.33° C | 86% | 1017 hPa | 0 mm | - | 87 W/m² | - |
| 1778155933 | 8.33° C | 87% | 1017.1 hPa | 0 mm | - | 68 W/m² | - |
| 1778155629 | 8.33° C | 87% | 1016.9 hPa | 0 mm | - | 80 W/m² | - |
| 1778155326 | 7.78° C | 88% | 1016.8 hPa | 0 mm | - | 55 W/m² | - |
| 1778155022 | 7.78° C | 88% | 1017 hPa | 0 mm | - | 65 W/m² | - |
| 1778154718 | 7.78° C | 88% | 1016.8 hPa | 0 mm | - | 41 W/m² | - |
| 1778154414 | 7.78° C | 89% | 1017 hPa | 0 mm | - | 36 W/m² | - |
| 1778154111 | 7.78° C | 89% | 1016.8 hPa | 0 mm | - | 31 W/m² | - |
| 1778153809 | 7.78° C | 90% | 1016.7 hPa | 0 mm | - | 30 W/m² | - |
| 1778153506 | 7.78° C | 90% | 1016.7 hPa | 0 mm | - | 21 W/m² | - |
| 1778153203 | 7.78° C | 90% | 1016.6 hPa | 0 mm | - | 36 W/m² | - |
| 1778152900 | 7.78° C | 90% | 1016.7 hPa | 0 mm | - | 25 W/m² | - |
| 1778152597 | 7.78° C | 90% | 1016.8 hPa | 0 mm | - | 18 W/m² | - |
| 1778152294 | 7.78° C | 91% | 1016.7 hPa | 0 mm | - | 13 W/m² | - |
| 1778151990 | 7.78° C | 91% | 1016.4 hPa | 0 mm | - | 11 W/m² | - |
| 1778151687 | 7.78° C | 91% | 1016.4 hPa | 0 mm | - | 11 W/m² | - |
| 1778151384 | 7.78° C | 91% | 1016.3 hPa | 0 mm | - | 17 W/m² | - |
| 1778151079 | 7.78° C | 91% | 1016.4 hPa | 0 mm | - | 11 W/m² | - |
| 1778150777 | 7.78° C | 91% | 1016.3 hPa | 0 mm | - | 6 W/m² | - |
| 1778150473 | 7.78° C | 92% | 1016.6 hPa | 0 mm | - | 4 W/m² | - |
* Rain latest hour (hover to see other rain measurements)
** Current wind speed in m/s (hover to see current wind gust speed)